This demonstration page uses our WeatherBlox Daily Observations layout. Learn more.

Left ArrowRight Arrow

36.19886, -115.1175

Hourly Observations for August 25, 2015

Temp ( °F °C ) Dew Point ( °F °C ) Humidity (%) Winds ( mph kmh ) Pressure ( in mb ) Visibility ( mi km ) Precip ( " mm )
12:53 am 00:53 Clear 87 30.6 33 0.6 14 14 NNW 3 6 29.85 1011 10 16 0.00 0.00
1:53 am 01:53 Clear 87 30.6 37 2.8 17 17 Calm 29.85 1011 10 16 0.00 0.00
2:53 am 02:53 Clear 85 29.4 40 4.4 20 20 Calm 29.85 1011 10 16 0.00 0.00
3:53 am 03:53 Clear 83 28.3 40 4.4 22 22 NNE 3 6 29.86 1011 10 16 0.00 0.00
4:53 am 04:53 Clear 84 28.9 39 3.9 20 20 NW 5 7 29.86 1011 10 16 0.00 0.00
5:53 am 05:53 Clear 85 29.4 39 3.9 20 20 Calm 29.88 1012 10 16 0.00 0.00
6:53 am 06:53 Mostly Sunny 86 30 37 2.8 18 18 E 3 6 29.92 1013 10 16 0.00 0.00
7:53 am 07:53 Sunny 86 30 37 2.8 18 18 NNW 7 11 29.96 1015 10 16 0.00 0.00
8:53 am 08:53 Sunny 89 31.7 38 3.3 16 16 W 13 20 29.97 1015 10 16 0.00 0.00
9:53 am 09:53 Sunny 93 33.9 46 7.8 20 20 SE 7 11 29.98 1015 10 16 0.00 0.00
10:53 am 10:53 Sunny 93 33.9 48 8.9 21 21 SSE 6 9 29.97 1015 10 16 0.00 0.00
11:53 am 11:53 Sunny 96 35.6 51 10.6 22 22 S 10 17 29.96 1015 10 16 0.00 0.00
12:53 pm 12:53 Sunny 95 35 51 10.6 23 23 SE 5 7 29.95 1014 10 16 0.00 0.00
1:53 pm 13:53 Mostly Sunny 95 35 51 10.6 23 23 S 6 9 29.93 1014 10 16 0.00 0.00
2:53 pm 14:53 Mostly Cloudy 95 35 47 8.3 19 19 S 9 15 29.91 1013 10 16 0.00 0.00
3:53 pm 15:53 Partly Cloudy 95 35 49 9.4 21 21 ESE 7 11 29.90 1012 10 16 0.00 0.00
4:53 pm 16:53 Partly Cloudy 95 35 47 8.3 19 19 S 7 11 29.89 1012 10 16 0.00 0.00
5:53 pm 17:53 Partly Cloudy 95 35 47 8.3 19 19 S 5 7 29.89 1012 10 16 0.00 0.00
6:53 pm 18:53 Sunny 92 33.3 56 13.3 30 30 S 7 11 29.89 1012 10 16 0.00 0.00
7:53 pm 19:53 Clear 91 32.8 56 13.3 31 31 S 5 7 29.89 1012 10 16 0.00 0.00
8:53 pm 20:53 Clear 89 31.7 56 13.3 33 33 ESE 3 6 29.91 1013 10 16 0.00 0.00
9:53 pm 21:53 Clear 89 31.7 56 13.3 33 33 ESE 7 11 29.92 1013 10 16 0.00 0.00
10:53 pm 22:53 Clear 88 31.1 57 13.9 35 35 ESE 8 13 29.92 1013 10 16 0.00 0.00
11:53 pm 23:53 Clear 87 30.6 57 13.9 36 36 ESE 7 11 29.93 1013 10 16 0.00 0.00

Powered by AerisWeather